AO-07 1 07530U 74089B 14331.01277297 -.00000001 00000-0 26588-3 0 1288 2 07530 101.4941 307.6031 0011915 338.9941 067.5751 12.53609260831929 FO-29 1 24278U 96046B 14331.86913483 -.00000009 00000-0 28563-4 0 5277 2 24278 098.5176 323.1527 0349702 232.8230 191.0353 13.53037480902804 SO-33 1 25509U 98061B 14330.42792823 .00000370 00000-0 62074-4 0 8894 2 25509 031.4322 320.9982 0348690 096.0188 028.7397 14.29754135840383 RS-22 1 27939U 03042A 14331.70660771 .00001680 00000-0 31778-3 0 776 2 27939 097.8207 137.8883 0012578 311.4056 048.6065 14.65551840596677 HO-68 1 36122U 09072B 14331.75160459 -.00000060 00000-0 -43517-4 0 1568 2 36122 100.2276 018.4803 0007395 219.4494 140.6080 13.16320719237953 AO-73 1 39444U 13066AE 14331.44946284 .00004065 00000-0 53779-3 0 3176 2 39444 097.7581 036.4594 0062362 073.3997 287.4051 14.79111651 53596 EO-79 1 40025U 14033R 14331.69981928 .00004384 00000-0 50721-3 0 4763 2 40025 097.9643 226.6000 0014053 117.0433 243.2230 14.85979447 23862 UO-11 1 14781U 84021B 14331.31848471 .00001103 00000-0 14570-3 0 6749 2 14781 097.8320 028.1003 0008649 019.2696 340.8843 14.81937138652127 AO-16 1 20439U 90005D 14331.07000182 .00000349 00000-0 14470-3 0 1809 2 20439 098.5225 265.4438 0011527 043.4013 020.7631 14.32436550297802 LO-19 1 20442U 90005G 14330.81130514 .00000228 00000-0 99839-4 0 1143 2 20442 098.4936 265.3550 0012246 032.8960 327.2984 14.32634616297966 AO-27 1 22825U 93061C 14330.82841576 .00000191 00000-0 91668-4 0 8286 2 22825 098.6829 276.1912 0008679 173.8924 239.0966 14.29789104104022 IO-26 1 22826U 93061D 14330.84898684 .00000221 00000-0 10286-3 0 5851 2 22826 098.6770 276.4065 0009333 166.5087 193.6347 14.30096740104169 GO-32 1 25397U 98043D 14331.86879850 .00000135 00000-0 78074-4 0 5077 2 25397 098.4927 283.9333 0001694 149.9066 267.4989 14.23488643851151 NO-44 1 26931U 01043C 14331.61951900 .00000292 00000-0 14432-3 0 7620 2 26931 067.0521 336.9929 0007495 271.7552 088.2691 14.30201358686976 SO-50 1 27607U 02058C 14331.53447044 .00001336 00000-0 21570-3 0 5841 2 27607 064.5570 094.2727 0066977 329.5108 030.2106 14.74168990641557 CO-55 1 27844U 03031E 14331.85901888 .00000436 00000-0 21870-3 0 794 2 27844 098.6975 338.2767 0010320 157.7240 322.6567 14.21631709591830 CO-57 1 27848U 03031J 14330.97470216 .00000450 00000-0 22649-3 0 191 2 27848 098.7072 337.2054 0010099 166.6961 258.8502 14.21301611591625 AO-51 1 28375U 04025K 14330.84743860 .00000291 00000-0 99157-4 0 07 2 28375 098.2705 272.3729 0082279 220.0376 139.4731 14.41510724547337 CP3 1 31129U 07012N 14331.51547098 .00001637 00000-0 36598-3 0 9099 2 31129 097.9547 301.4333 0096674 221.5671 254.8127 14.55183712403780 CO-65 1 32785U 08021C 14331.84027208 .00002386 00000-0 27891-3 0 1260 2 32785 097.6788 017.6160 0013788 016.8441 042.6662 14.85947400356321 PRISM 1 33493U 09002B 14331.80096359 .00007908 00000-0 80426-3 0 5235 2 33493 098.2504 154.6296 0016343 271.0658 088.8702 14.90969573316546 SOHLA-1 1 33496U 09002E 14331.86957097 .00000834 00000-0 14413-3 0 5233 2 33496 098.1885 093.4130 0007520 087.2145 028.3556 14.71043398313575 TISAT-1 1 36799U 10035E 14331.85811400 .00005282 00000-0 59767-3 0 7398 2 36799 098.0173 065.1758 0014165 144.2809 339.4649 14.86808491237022 STUDSAT 1 36801U 10035G 14331.19173057 .00031063 00000-0 23683-2 0 9427 2 36801 098.0528 076.2042 0005634 108.7104 311.8697 15.01955945237542 ALMASAT-1 1 38078U 12006B 14331.19825435 .00057118 35988-5 11043-2 0 2189 2 38078 069.4663 023.3403 0546749 174.4811 186.2709 14.61785183145342 XATCOBEO 1 38082U 12006F 14243.34478676 .13583328 43697-5 37939-3 0 5637 2 38082 069.3815 097.0364 0033293 225.1799 135.4582 16.41261006136239 CUBEBUG-1 1 39153U 13018D 14331.52076231 .00002876 00000-0 40164-3 0 6754 2 39153 098.0325 051.4512 0017877 180.6522 179.4668 14.78331459 85674 ESTCUBE-1 1 39161U 13021C 14331.77034640 .00002583 00000-0 43408-3 0 7000 2 39161 098.0874 051.4130 0008633 232.7070 127.3336 14.70475768 83637 DUCHIFAT-1 1 40021U 14033M 14331.67887127 .00005869 00000-0 67044-3 0 4768 2 40021 097.9669 226.6634 0015137 120.5056 239.7678 14.86356602 23851 NANOSATCBR1 1 40024U 14033Q 14331.76003563 .00005299 00000-0 60913-3 0 4692 2 40024 097.9644 226.6789 0014344 118.4225 241.8449 14.86152724 23861 DTUSAT-2 1 40030U 14033W 14331.67276833 .00004138 00000-0 48369-3 0 4659 2 40030 097.9651 226.4632 0013994 112.5594 247.7117 14.85594417 23859 ANTELSAT 1 40034U 14033AA 14331.74169051 .00003456 00000-0 54469-3 0 4755 2 40034 097.9639 223.0544 0062611 045.0902 315.5379 14.71776138 23656 MET-2/21 1 22782U 93055A 14331.19728516 .00000028 00000-0 11428-4 0 2346 2 22782 082.5510 043.9614 0023082 165.0308 260.4142 13.83754115 72667 OKEAN-4 1 23317U 94066A 14331.55001509 .00002365 00000-0 26730-3 0 7195 2 23317 082.5384 274.7193 0018429 279.0168 202.9028 14.86006443 87361 NOAA-14 1 23455U 94089A 14331.47436634 -.00000007 00000-0 19436-4 0 9971 2 23455 098.7693 051.9378 0008416 296.1372 192.2291 14.14004858 27027 NOAA-15 1 25338U 98030A 14331.53138778 .00000223 00000-0 11298-3 0 4362 2 25338 098.7631 325.1663 0011145 039.3809 069.3689 14.25514755860113 RESURS 1 25394U 98043A 14331.88580431 .00000094 00000-0 58580-4 0 8178 2 25394 098.4372 289.5509 0002364 123.3794 252.0435 14.24419455851622 FENGYUN1 1 25730U 99025A 14331.46013507 .00003420 00000-0 18697-2 0 3053 2 25730 098.9271 291.6910 0022466 009.6801 138.5637 14.12520150800560 OKEAN-0 1 25860U 99039A 14331.88790388 .00001212 00000-0 18524-3 0 4268 2 25860 098.0665 295.0098 0001055 115.8128 297.0256 14.75598146826295 NOAA-16 1 26536U 00055A 14331.43727150 .00000128 00000-0 92860-4 0 9342 2 26536 098.9710 032.3424 0011462 085.3340 274.9141 14.13056535731173 NOAA-17 1 27453U 02032A 14331.46999053 .00000220 00000-0 11187-3 0 8247 2 27453 098.3240 322.6645 0012580 059.2727 300.9690 14.24821934645937 NOAA-18 1 28654U 05018A 14331.50795133 .00000258 00000-0 16582-3 0 3471 2 28654 099.1667 314.4402 0014697 162.8797 305.1016 14.12104597490610 NOAA-19 1 33591U 09005A 14331.50140858 .00000288 00000-0 18232-3 0 4787 2 33591 098.9647 276.1925 0014379 023.0039 085.2261 14.11815469299036 HUBBLE 1 20580U 90037B 14331.64992263 .00004445 00000-0 28375-3 0 1657 2 20580 028.4714 042.0471 0002717 228.5861 266.8407 15.06267569149385 ISS 1 25544U 98067A 14331.62393138 .00017205 00000-0 29226-3 0 4711 2 25544 051.6475 009.2796 0007375 073.1803 068.6923 15.51538622916689 CO-58 1 28895U 05043F 14330.82196567 .00001288 00000-0 26380-3 0 9305 2 28895 097.8228 164.1921 0016709 213.2945 146.7207 14.62248216484013 FALCON 1 30776U 07006E 14331.80418927 .00013835 00000-0 64158-3 0 131 2 30776 035.4274 178.9836 0003683 307.0616 116.1112 15.19292601425601 MAST 1 31126U 07012K 14331.15636182 .00001134 00000-0 25595-3 0 2123 2 31126 097.9347 303.7488 0091189 205.1694 292.6590 14.55612676404095 CAPE1 1 31130U 07012P 14330.89428428 .00001675 00000-0 37621-3 0 2189 2 31130 097.9562 300.3688 0097335 225.0733 134.2539 14.54900067403465 COMPASS 1 32787U 08021E 14331.13268505 .00006148 00000-0 65738-3 0 1106 2 32787 097.6808 019.9060 0013508 009.0220 351.1238 14.89030588356421 AAUSAT2 1 32788U 08021F 14331.12146946 .00006524 00000-0 68305-3 0 975 2 32788 097.6819 021.0915 0012909 006.8975 353.2418 14.89868025356498 DO-64 1 32789U 08021G 14331.40053361 .00013072 00000-0 11715-2 0 1424 2 32789 097.7027 029.5558 0010926 348.9294 070.6426 14.95871320356878 CO-66 1 32791U 08021J 14331.78360236 .00004060 00000-0 45317-3 0 927 2 32791 097.6805 018.9391 0014292 011.0157 349.1370 14.87465045356367 RS-30 1 32953U 08025A 14331.69872865 .00000010 00000-0 -13620-7 0 5043 2 32953 082.5043 099.5458 0019338 158.5812 201.6082 12.43053115295572 METEOR-M 1 35865U 09049A 14331.89840818 .00000235 00000-0 12557-3 0 1138 2 35865 098.5302 014.1730 0002387 003.1740 356.9431 14.21957776269600 RS-38 1 35869U 09049E 14331.68942897 .00000164 00000-0 92946-4 0 174 2 35869 098.5221 013.6951 0004579 350.0587 010.0486 14.22248090269613 JUGNU 1 37839U 11058B 14330.39998266 .00000559 00000-0 15679-3 0 7413 2 37839 019.9628 351.7710 0019008 332.4348 148.7611 14.12378974161514 SRMSAT 1 37841U 11058D 14331.47841479 .00000480 00000-0 11991-3 0 7459 2 37841 019.9735 007.8400 0011714 278.0279 236.4399 14.10407699161440 RAX-2 1 37853U 11061D 14331.20449363 .00012093 00000-0 79073-3 0 9734 2 37853 101.7030 078.8071 0208754 304.4076 114.5911 14.91894257166949 AUBIESAT 1 37854U 11061E 14331.30309778 .00012111 00000-0 76280-3 0 9706 2 37854 101.7068 081.4312 0206253 300.3267 120.8622 14.93500551167031 HRBE 1 37855U 11061F 14331.29562940 .00012957 00000-0 82806-3 0 9919 2 37855 101.7070 080.5071 0208697 302.1230 055.9872 14.92642110166986 RS-39 1 38051U 11062C 14288.65876392 .70201582 12497-4 27925-2 0 413 2 38051 051.5964 324.1908 0006422 269.6897 186.8903 16.43533377153081 E-STAR 1 38079U 12006C 14331.88767424 .00283683 24746-4 16171-2 0 776 2 38079 069.4313 269.2018 0200308 112.9201 249.3271 15.55595184148427 GOLIAT 1 38085U 12006J 14331.86940031 .00209736 14049-4 15070-2 0 5750 2 38085 069.4380 281.4902 0242560 119.0101 320.8947 15.43290203148100 HORYU-2 1 38340U 12025D 14330.86989857 .00003914 00000-0 61337-3 0 293 2 38340 098.2869 291.0659 0012921 026.2779 333.9081 14.73240497135739 RS-40 1 38735U 12041C 14331.65621751 .00000040 00000-0 21992-3 0 8066 2 38735 082.4773 185.6242 0016341 260.7142 099.2091 12.42564072105889 PROITERES 1 38756U 12047B 14331.80421592 .00001900 00000-0 28802-3 0 4444 2 38756 098.2235 062.7728 0011383 217.3208 142.7202 14.75316919119309 BEESAT-3 1 39134U 13015E 14331.18433395 .00015184 00000-0 98117-3 0 7770 2 39134 064.8755 341.8699 0036168 281.8319 077.8747 15.07869259 88191 BEESAT-2 1 39136U 13015G 14331.12899689 .00012949 00000-0 86081-3 0 7580 2 39136 064.8759 343.1175 0036417 281.9195 077.7843 15.06905442 88179 LO-75 1 39382U 13064C 14295.69194059 .07301741 00000-0 36367-2 0 4875 2 39382 040.4713 030.2705 0002289 341.7175 018.4586 16.19795749470823 ZACUBE-1 1 39417U 13066B 14330.81607366 .00002629 00000-0 35304-3 0 4743 2 39417 097.7580 035.7498 0062795 075.8140 285.0037 14.78773005 54727 TRITON-1 1 39427U 13066M 14331.76883309 .00001957 00000-0 33034-3 0 3269 2 39427 097.7456 029.1386 0118547 089.8590 271.6199 14.65926261 54353 DELFIN3XT 1 39428U 13066N 14330.81819906 .00003975 00000-0 67814-3 0 3295 2 39428 097.7445 026.9924 0128202 096.2322 265.3503 14.64166916 54125 GOMX-1 1 39430U 13066Q 14331.68311742 .00002584 00000-0 49069-3 0 204 2 39430 097.7367 024.1128 0156626 103.9514 257.9119 14.57351872 54025 MO-76 1 39436U 13066W 14331.39358685 .00033875 00000-0 30233-2 0 4174 2 39436 097.7642 042.8391 0023621 068.5221 291.8516 14.95645366 55211 LO-74 1 39440U 13066AA 14331.81126487 .00002430 00000-0 35914-3 0 3230 2 39440 097.7536 033.7259 0084631 078.4538 282.6158 14.73674288 54679 PUCPSAT-1 1 39442U 13066AC 14331.74303786 .00005084 00000-0 56567-3 0 3227 2 39442 097.7643 041.3199 0035286 068.8205 291.6776 14.87108471 53917 SHINAISAT 1 39572U 14009A 14328.13084988 .28848087 76253-5 66603-3 0 4474 2 39572 064.9728 197.0096 0013534 259.7861 100.1802 16.45181032 42403 TEIKYOSAT 1 39576U 14009E 14297.85867254 .09345816 76764-5 25176-3 0 4374 2 39576 064.9818 300.5833 0008491 317.3597 044.3862 16.45008906 37698 CO-77 1 39577U 14009F 14244.78324653 .10543803 76292-5 32273-3 0 3795 2 39577 064.9920 123.7668 0014904 269.7208 091.1897 16.43552757 29380 SPROUT 1 39770U 14029E 14331.44068172 .00002954 00000-0 36877-3 0 2050 2 39770 097.8742 066.1390 0011038 135.6148 224.5976 14.83094588 27724 POPSAT-HIP1 1 40028U 14033U 14331.71741270 .00004367 00000-0 50718-3 0 4940 2 40028 097.9695 226.6512 0015749 116.3353 243.9480 14.85813034 23858 EO-80 1 40032U 14033Y 14331.67531334 .00004084 00000-0 47792-3 0 4807 2 40032 097.9660 226.4744 0013386 111.1195 249.1474 14.85561048 23858 VELOX-1 1 40057U 14034E 14331.76781100 .00004302 00000-0 65146-3 0 4810 2 40057 098.2371 041.5288 0012166 157.2011 202.9724 14.74666778 22184 DAURIA DX 1 1 40071U 14037C 14331.81011057 .00002032 00000-0 27709-3 0 4543 2 40071 098.3839 029.7375 0009111 157.5121 202.6489 14.79834958 21003 UKUBE-1 1 40074U 14037F 14331.78394440 .00004142 00000-0 54138-3 0 4553 2 40074 098.3851 029.9523 0005127 161.3320 198.8057 14.81034942 21010 CHASQUI-1 1 40117U 98067ET 14331.56329546 .00191701 00000-0 15350-2 0 3129 2 40117 051.6431 004.3835 0009754 024.1915 106.6554 15.69868805 15712 /EX
